User: anonymous   Login
Location: Columbus
(29.5618°N, 96.6770°W)
Time: 13:35:24
(UTC-05:00)
Language:

Cosmos 2056 Rocket - Orbit

View from above orbital plane
View from above orbital plane
View from above satellite
View from above satellite

Ground track
Ground track

The orbit data is extracted from the following two-line orbital elements,

1 20433U 90004B   16274.54299556  .00000127  00000-0  52427-4 0  9994
2 20433  74.0343 112.8016 0041788 304.5927 119.0176 14.35952841397930
Epoch (UTC): 30 September 2016 13:01:54
Eccentricity: 0.0041788
inclination: 74.0343°
perigee height: 742 km
apogee height: 802 km
right ascension of ascending node: 112.8016°
argument of perigee: 304.5927°
revolutions per day: 14.35952841
mean anomaly at epoch: 119.0176°
orbit number at epoch: 39793

The dashed part of the orbit path shows where the satellite is in the earth's shadow,  

DLR